This is the latest recevied weather packets stored in our database for station/object KC9GSD. If no packets are shown the sender has not sent any weather packets the latest 10 day(s).
| Time | Temp. | Humidity | Pressure | Rain* | Wind** | Luminosity | Snow |
|---|---|---|---|---|---|---|---|
| 1777573308 | 18.89° C | 62% | 1013.4 hPa | 0 mm | - | 663 W/m² | - |
| 1777573004 | 18.89° C | 58% | 1013.5 hPa | 0 mm | - | 445 W/m² | - |
| 1777572700 | 19.44° C | 56% | 1013.4 hPa | 0 mm | - | 512 W/m² | - |
| 1777572399 | 18.89° C | 67% | 1013.5 hPa | 0 mm | - | 654 W/m² | - |
| 1777572097 | 18.89° C | 62% | 1013.5 hPa | 0 mm | - | 583 W/m² | - |
| 1777571797 | 18.89° C | 56% | 1013.4 hPa | 0 mm | - | 676 W/m² | - |
| 1777571493 | 18.89° C | 57% | 1013.4 hPa | 0 mm | - | 574 W/m² | - |
| 1777571191 | 18.89° C | 57% | 1013.5 hPa | 0 mm | - | 674 W/m² | - |
| 1777570886 | 18.89° C | 65% | 1013.7 hPa | 0 mm | - | 561 W/m² | - |
| 1777570582 | 18.89° C | 60% | 1014.1 hPa | 0 mm | - | 642 W/m² | - |
| 1777570279 | 18.89° C | 59% | 1013.9 hPa | 0 mm | - | 704 W/m² | - |
| 1777569975 | 18.89° C | 58% | 1013.9 hPa | 0 mm | - | 481 W/m² | - |
| 1777569670 | 18.89° C | 64% | 1013.9 hPa | 0 mm | - | 604 W/m² | - |
| 1777569367 | 18.33° C | 61% | 1013.7 hPa | 0 mm | - | 565 W/m² | - |
| 1777569063 | 18.33° C | 64% | 1014 hPa | 0 mm | - | 482 W/m² | - |
| 1777568760 | 18.33° C | 65% | 1014.1 hPa | 0 mm | - | 539 W/m² | - |
| 1777568457 | 18.33° C | 62% | 1013.8 hPa | 0 mm | - | 489 W/m² | - |
| 1777568154 | 17.78° C | 62% | 1013.9 hPa | 0 mm | - | 559 W/m² | - |
| 1777567851 | 17.78° C | 63% | 1014.1 hPa | 0 mm | - | 485 W/m² | - |
| 1777567547 | 17.78° C | 64% | 1014.1 hPa | 0 mm | - | 437 W/m² | - |
| 1777567244 | 17.78° C | 65% | 1014.1 hPa | 0 mm | - | 433 W/m² | - |
| 1777566943 | 17.78° C | 64% | 1014.3 hPa | 0 mm | - | 563 W/m² | - |
| 1777566640 | 18.33° C | 62% | 1014.1 hPa | 0 mm | - | 659 W/m² | - |
| 1777566338 | 17.78° C | 66% | 1014.3 hPa | 0 mm | - | 804 W/m² | - |
| 1777566035 | 17.78° C | 66% | 1014.1 hPa | 0 mm | - | 769 W/m² | - |
* Rain latest hour (hover to see other rain measurements)
** Current wind speed in m/s (hover to see current wind gust speed)